Location: Axtheid
(49.6213°N, 11.8205°E)
Time: 07:34:18
(UTC+00:00)

Cosmos 2278 Rocket - Visible Passes

Search period start: 09 May 2021 00:00
Search period end: 19 May 2021 00:00
Orbit: 842 x 844 km, 71.0° (Epoch: 08 May)

Date Brightness Start Highest point End Pass type
(mag) Time Alt. Az. Time Alt. Az. Time Alt. Az.
09 May 5.1 00:39:16 10° NNW 00:40:11 10° NNW 00:41:05 10° N visible
09 May 2.2 20:50:05 14° S 20:54:56 61° ESE 21:00:31 10° NE visible
09 May 3.9 22:34:29 10° WSW 22:39:25 30° NW 22:44:23 10° NNE visible
10 May 5.1 00:24:24 10° NNW 00:25:32 11° NNW 00:26:40 10° N visible
10 May 2.2 20:34:49 10° S 20:40:22 59° ESE 20:45:56 10° NE visible
10 May 3.9 22:19:50 10° WSW 22:24:49 31° NW 22:29:49 10° NNE visible
11 May 5.1 00:09:35 10° NW 00:10:54 11° NNW 00:12:13 10° N visible
11 May 2.3 20:20:17 10° S 20:25:48 57° ESE 20:31:20 10° NE visible
11 May 3.9 22:05:11 10° WSW 22:10:12 32° NW 22:15:15 10° NNE visible
11 May 5.2 23:54:46 10° NW 23:56:16 11° NNW 23:57:45 10° N visible
12 May 2.3 20:05:44 10° S 20:11:13 55° ESE 20:16:45 10° NE visible
12 May 3.9 21:50:32 10° WSW 21:55:36 33° NW 22:00:41 10° NNE visible
12 May 5.2 23:39:58 10° NW 23:41:37 11° NNW 23:43:16 10° N visible
13 May 2.4 19:51:12 10° S 19:56:39 52° ESE 20:02:09 10° NE visible
13 May 3.9 21:35:54 10° WSW 21:41:00 34° NW 21:46:08 10° NNE visible
13 May 5.2 23:25:12 10° NW 23:26:59 11° NNW 23:28:46 10° N visible
14 May 2.4 19:36:39 10° S 19:42:05 50° ESE 19:47:33 10° NE visible
14 May 3.9 21:21:16 10° WSW 21:26:24 35° NW 21:31:33 10° NNE visible
14 May 5.2 23:10:25 10° NW 23:12:21 12° NNW 23:14:16 10° N visible
15 May 5.2 02:42:53 10° N 02:46:19 16° NNE 02:49:44 10° ENE visible
15 May 2.4 19:22:07 10° S 19:27:31 48° ESE 19:32:58 10° NE visible
15 May 3.8 21:06:37 10° WSW 21:11:47 36° NW 21:17:00 10° NNE visible
15 May 5.3 22:55:39 10° NW 22:57:42 12° NNW 22:59:45 10° N visible
16 May 5.2 02:28:21 10° N 02:31:41 16° NNE 02:35:01 10° ENE visible
16 May 3.8 20:51:58 10° WSW 20:57:11 37° NW 21:02:26 10° NNE visible
16 May 5.3 22:40:53 10° NW 22:43:04 12° NNW 22:45:14 10° N visible
17 May 5.3 02:13:48 10° N 02:17:03 15° NNE 02:20:18 10° ENE visible
17 May 3.8 20:37:20 10° WSW 20:42:35 38° NW 20:47:52 10° NNE visible
17 May 5.3 22:26:08 10° NW 22:28:26 12° NNW 22:30:43 10° N visible
18 May 5.3 01:59:15 10° N 02:02:26 15° NNE 02:05:35 10° ENE visible
18 May 3.8 20:22:42 10° WSW 20:27:59 39° NW 20:33:18 10° NNE visible
18 May 5.4 22:11:23 10° NW 22:13:47 13° NNW 22:16:11 10° N visible
